Wind_Speed
20 18 16 21 17 17 15 12 12 13 13 12 11 10 8 8 7 7 8 9 11 10 8 9 10 10 11 13 15 17 17 18 17 16 15 14 13 11 10 8 7 7 7
18 20 16 11 16 13 12 12 12 14 15 14 10 9 7 7 6 6 7 9 10 9 8 9 9 8 10 11 13 14 15 16 15 14 14 13 11 10 8 7 5 5 5
14 15 13 16 13 13 13 13 14 15 14 11 10 9 7 6 6 7 8 9 9 7 8 8 8 8 9 10 11 11 12 13 12 12 11 11 8 8 7 6 3 4 3
15 15 15 15 14 14 13 13 14 13 12 11 9 7 7 7 7 8 9 10 8 7 6 7 7 8 7 7 7 7 7 10 11 9 11 9 5 6 7 4 5 4 3
15 14 13 13 13 12 12 11 12 10 9 9 7 6 5 7 8 8 8 8 7 5 5 5 6 5 4 4 3 2 4 5 4 6 6 10 11 9 8 7 1 1 1
12 11 11 11 10 10 10 10 10 8 8 7 4 2 4 6 6 8 8 8 7 5 4 4 3 3 2 2 1 2 2 3 3 6 3 6 8 9 9 6 5 3 2
10 9 9 8 8 8 9 10 9 8 7 4 1 2 4 3 5 6 7 6 7 6 6 5 3 1 2 2 2 3 2 2 4 4 1 3 3 4 7 6 3 2 2
8 6 6 7 8 7 9 10 10 8 7 4 4 3 4 4 4 5 5 5 5 4 3 3 4 2 1 2 3 5 5 4 4 3 3 2 3 4 4 5 5 2 2
5 4 4 6 6 8 9 11 11 10 9 9 9 9 8 7 6 4 4 4 4 3 3 3 1 1 1 1 2 2 5 6 6 3 4 5 9 7 5 4 4 4 3
2 5 6 5 6 9 10 11 11 11 11 11 12 10 8 9 9 8 5 6 6 5 3 3 3 2 1 4 5 4 2 6 10 4 1 3 6 10 8 6 5 4 4
5 7 6 6 9 11 11 11 11 11 10 10 11 8 11 4 12 13 11 11 11 8 8 6 6 6 6 6 3 2 5 4 9 13 14 10 4 7 8 7 5 5 5
7 8 7 10 12 11 10 10 10 10 10 12 12 9 10 13 12 14 13 13 13 11 10 12 12 11 11 13 8 7 14 9 7 7 12 11 7 7 6 7 7 9 10
8 9 10 12 11 11 9 8 9 10 10 11 11 11 11 11 11 11 12 13 10 9 12 13 3 10 12 15 13 13 14 13 18 14 12 10 8 5 7 8 9 10 11
12 12 12 12 10 9 8 8 8 8 8 9 10 10 9 10 10 10 11 11 10 8 9 8 8 10 11 11 9 9 8 10 11 11 11 12 12 8 6 8 9 11 14
13 13 13 11 10 9 8 6 5 6 6 7 8 8 7 8 9 9 10 9 8 7 8 10 11 11 10 9 9 9 9 9 10 10 13 13 12 11 9 7 8 9 9
14 13 12 12 10 9 7 6 5 4 4 5 7 8 6 6 7 6 5 6 5 5 6 6 7 7 9 9 10 10 11 11 11 11 10 11 12 11 11 10 8 10 10
13 12 11 10 8 7 6 4 4 4 3 3 5 6 4 3 3 3 3 4 4 4 5 6 7 8 8 10 10 11 12 12 12 11 9 8 9 12 11 10 9 8 9
11 11 10 9 7 5 4 3 3 4 4 5 5 5 4 3 2 3 2 4 5 6 7 8 8 8 10 11 12 12 12 12 11 12 11 9 8 10 12 12 10 9 10
11 10 8 7 6 3 1 1 1 2 3 5 4 3 3 2 3 3 5 7 7 8 10 11 11 14 13 15 14 14 13 12 12 12 12 9 8 8 11 11 11 9 9
10 8 7 6 5 4 2 2 1 2 3 3 1 0 2 2 4 6 8 9 11 12 13 14 15 15 14 15 14 14 14 13 13 12 12 10 10 9 10 12 12 12 10
8 7 7 6 6 6 4 4 4 4 4 3 3 4 6 6 7 8 10 12 13 14 14 15 14 15 15 16 16 16 17 16 14 13 13 12 12 10 10 11 10 13 12
8 8 8 8 9 7 7 6 6 6 7 7 7 8 8 10 12 14 16 16 16 16 15 15 15 14 15 17 17 17 15 15 18 16 13 14 14 12 13 13 10 12 14
8 10 10 9 9 8 8 7 7 8 8 8 10 11 13 15 16 17 16 15 14 15 17 18 19 19 18 18 19 19 18 18 16 16 19 17 15 14 12 14 13 12 14
12 11 11 11 11 10 9 10 9 9 10 12 13 15 17 19 18 15 14 14 15 15 16 18 20 22 21 21 20 20 19 20 21 18 15 18 19 17 13 18 17 15 13
16 15 14 14 13 12 12 12 11 11 13 15 17 19 19 18 15 13 14 15 16 18 18 20 22 23 24 24 22 21 21 21 21 22 20 20 15 18 24 21 19 20 14
20 18 17 17 17 15 15 14 15 16 15 18 21 21 18 12 12 12 14 15 17 20 23 25 24 24 27 27 26 24 22 23 22 23 23 23 22 20 19 24 23 20 19
Wind_Direction
89 103 130 125 111 109 112 117 129 135 124 122 116 115 119 123 110 97 93 93 80 74 90 90 83 80 82 79 73 75 75 71 68 69 70 72 72 79 97 114 129 152 151
98 112 116 109 122 110 113 120 125 122 118 106 112 119 118 109 100 98 93 80 73 70 91 100 100 96 84 82 81 78 74 71 70 71 70 68 70 73 81 95 131 150 159
101 113 105 111 119 119 123 128 120 111 101 110 110 105 103 96 95 89 85 80 77 81 95 113 117 106 96 88 84 81 75 70 60 68 76 54 60 75 74 77 101 147 150
103 104 107 110 112 118 121 124 113 106 110 109 103 110 99 90 80 79 78 79 81 84 103 119 119 109 99 98 97 86 72 69 55 54 68 71 75 68 56 101 101 104 131
102 100 99 102 109 114 116 109 103 100 107 114 118 101 83 76 71 73 78 80 80 76 96 117 117 117 109 90 82 81 57 82 20 33 56 69 68 59 60 54 100 309 88
92 91 90 92 96 96 98 95 99 109 119 126 122 96 69 64 65 71 80 81 91 83 69 88 108 124 137 115 34 3 23 13 344 306 269 51 59 54 47 53 38 356 293
86 85 84 88 92 93 93 99 105 109 116 120 121 63 71 72 65 68 77 89 94 85 74 68 81 165 237 240 257 286 304 328 343 354 289 319 15 10 18 31 38 23 360
91 86 87 103 103 103 107 106 102 106 105 102 106 100 105 89 72 55 64 66 80 77 76 65 60 60 50 251 270 263 273 297 316 342 9 326 323 332 328 355 8 355 305
98 91 98 118 116 114 106 107 109 110 105 97 106 97 102 114 90 68 80 94 102 91 67 40 11 329 319 296 253 325 8 354 344 323 341 330 288 318 297 298 337 346 324
126 109 123 115 112 110 112 111 109 108 101 95 95 103 120 104 104 101 87 77 79 70 62 56 58 74 53 340 325 346 26 345 315 129 44 317 309 273 284 261 281 303 328
130 124 126 123 121 115 112 111 107 101 101 99 97 100 91 89 81 81 76 73 71 75 68 73 74 71 76 72 5 325 75 20 253 347 3 326 327 289 263 248 267 280 286
143 133 124 125 118 114 109 103 103 103 107 104 101 95 79 105 86 85 79 75 71 76 95 70 66 70 77 78 56 2 57 60 340 87 7 348 334 325 273 244 247 275 287
150 139 134 128 118 116 105 98 97 97 95 103 102 104 97 92 88 87 84 83 90 70 64 73 71 68 61 66 54 32 26 40 23 18 17 3 354 326 306 284 273 267 288
144 142 140 122 121 111 113 106 99 99 101 104 106 102 98 95 94 87 80 81 79 67 54 61 56 53 49 52 56 56 51 19 34 17 23 17 14 357 319 309 299 291 281
146 146 135 131 119 111 103 102 93 92 98 107 110 105 106 103 96 89 89 81 69 58 43 31 33 30 39 30 30 27 24 16 10 15 5 10 10 9 358 331 316 309 311
147 148 141 131 120 110 111 108 96 90 106 111 112 118 117 113 106 91 67 62 44 35 24 21 28 24 20 13 13 16 16 11 7 9 3 0 358 357 2 354 346 321 307
153 147 142 136 128 118 123 113 97 96 81 100 112 106 114 102 94 78 50 29 9 359 2 4 3 7 358 354 359 4 360 2 1 360 356 357 354 352 346 348 354 344 329
166 164 158 151 144 137 123 131 97 78 82 114 103 110 109 88 75 51 27 357 346 339 338 332 333 336 330 329 335 343 347 347 348 345 347 345 352 349 338 338 342 341 343
177 176 168 165 167 183 146 101 105 101 124 112 127 104 94 57 1 341 347 337 329 336 331 329 331 327 328 327 328 326 329 327 331 338 336 338 337 340 327 332 328 329 326
185 184 191 194 202 224 250 292 249 197 184 140 144 71 295 333 322 331 324 320 326 324 322 325 325 322 322 314 320 318 314 315 317 321 323 327 324 326 323 324 317 309 313
207 208 216 224 230 235 245 257 236 225 236 260 270 284 294 301 301 304 304 308 307 307 308 310 314 317 319 316 321 317 314 313 303 308 315 313 309 312 312 306 307 312 311
230 232 235 236 242 243 244 245 244 239 252 265 275 288 294 300 305 307 306 300 301 299 299 301 304 307 311 312 312 309 313 310 310 310 313 306 303 303 300 297 287 293 305
245 245 247 247 244 245 246 247 242 249 261 272 284 287 293 298 301 304 305 305 302 306 311 308 306 306 306 306 306 307 309 306 300 304 313 312 303 299 297 288 286 285 296
233 240 249 247 247 244 241 245 244 258 270 280 283 290 293 298 303 307 308 308 309 308 310 311 311 306 300 299 303 299 301 301 301 300 298 304 313 307 296 294 291 281 279
246 249 247 247 246 248 247 248 249 258 271 282 289 292 293 302 304 308 311 312 312 311 312 313 308 304 300 296 297 293 292 290 295 297 297 296 295 296 307 299 294 294 281
254 256 257 254 246 244 246 249 253 260 273 284 292 297 296 295 305 313 322 325 328 325 324 318 311 308 305 299 293 289 286 287 290 292 295 295 300 298 297 297 297 289 285
Height
5888 5888 5889 5890 5890 5891 5892 5893 5894 5895 5894 5895 5896 5898 5899 5900 5901 5901 5901 5901 5900 5901 5900 5901 5902 5903 5904 5903 5904 5903 5903 5903 5903 5902 5903 5904 5903 5904 5906 5907 5908 5908 5909
5891 5892 5893 5893 5893 5894 5895 5896 5897 5897 5897 5897 5898 5900 5902 5902 5903 5904 5904 5903 5903 5903 5902 5904 5904 5905 5905 5906 5905 5905 5904 5904 5905 5905 5905 5905 5906 5907 5908 5908 5909 5910 5911
5893 5894 5894 5895 5895 5896 5897 5899 5899 5899 5898 5900 5902 5903 5904 5905 5905 5906 5906 5905 5905 5905 5904 5906 5906 5907 5907 5908 5908 5907 5907 5907 5908 5908 5907 5908 5909 5909 5909 5909 5910 5911 5912
5896 5896 5897 5897 5898 5898 5899 5901 5900 5900 5901 5903 5904 5906 5906 5907 5907 5908 5907 5907 5907 5907 5907 5908 5908 5908 5909 5910 5910 5910 5910 5910 5910 5911 5910 5910 5909 5910 5910 5910 5911 5912 5912
5897 5898 5899 5898 5899 5900 5901 5902 5902 5903 5905 5906 5907 5908 5908 5908 5909 5909 5909 5909 5909 5909 5909 5910 5910 5910 5911 5911 5912 5912 5912 5912 5912 5912 5912 5910 5910 5911 5911 5911 5913 5914 5914
5899 5900 5900 5901 5901 5902 5903 5903 5904 5906 5907 5908 5909 5909 5909 5909 5910 5911 5911 5911 5912 5911 5912 5912 5912 5912 5912 5912 5912 5912 5913 5913 5912 5914 5914 5912 5912 5912 5912 5911 5912 5913 5914
5901 5901 5902 5902 5903 5904 5905 5905 5906 5908 5909 5910 5910 5911 5911 5912 5912 5913 5913 5913 5913 5913 5913 5913 5913 5913 5913 5913 5912 5912 5912 5912 5912 5913 5914 5914 5913 5914 5913 5912 5912 5912 5913
5902 5903 5904 5904 5904 5906 5907 5908 5909 5910 5911 5912 5912 5913 5914 5915 5915 5914 5914 5915 5915 5914 5914 5913 5913 5913 5913 5913 5912 5910 5910 5911 5910 5910 5912 5913 5913 5913 5913 5913 5913 5913 5913
5904 5904 5905 5906 5907 5908 5909 5910 5912 5912 5913 5914 5915 5915 5915 5914 5914 5915 5915 5915 5915 5915 5915 5915 5914 5914 5913 5912 5911 5913 5915 5914 5911 5905 5907 5909 5912 5913 5913 5913 5913 5913 5912
5905 5905 5907 5908 5909 5910 5912 5913 5914 5915 5916 5917 5917 5915 5913 5916 5914 5915 5918 5917 5917 5916 5915 5915 5914 5913 5912 5912 5914 5915 5912 5912 5909 5870 5898 5904 5908 5911 5912 5912 5912 5912 5912
5905 5906 5908 5910 5911 5912 5914 5915 5916 5917 5917 5919 5919 5915 5920 5919 5918 5916 5919 5920 5919 5916 5918 5915 5915 5915 5913 5912 5911 5910 5910 5908 5898 5899 5901 5907 5905 5909 5910 5910 5911 5911 5912
5906 5907 5910 5912 5913 5915 5916 5917 5917 5919 5919 5920 5921 5918 5918 5918 5920 5919 5921 5922 5921 5918 5917 5918 5920 5919 5916 5914 5912 5911 5909 5908 5897 5898 5907 5906 5906 5907 5909 5909 5909 5910 5911
5908 5909 5911 5913 5915 5916 5918 5919 5920 5920 5921 5922 5922 5923 5922 5921 5922 5923 5923 5923 5928 5920 5920 5922 5921 5921 5920 5915 5916 5913 5910 5910 5904 5901 5907 5907 5906 5906 5908 5908 5909 5909 5909
5909 5911 5913 5915 5917 5918 5920 5920 5921 5921 5922 5923 5923 5924 5924 5924 5924 5924 5924 5925 5924 5922 5922 5923 5923 5922 5919 5917 5919 5920 5917 5913 5913 5911 5909 5909 5906 5906 5907 5907 5908 5908 5908
5910 5912 5915 5917 5919 5920 5920 5921 5922 5922 5922 5923 5923 5924 5925 5925 5925 5925 5926 5926 5926 5925 5923 5921 5921 5920 5920 5920 5921 5920 5917 5915 5912 5910 5909 5908 5908 5908 5907 5907 5907 5906 5906
5912 5914 5916 5918 5919 5920 5921 5922 5923 5923 5924 5925 5924 5925 5925 5926 5926 5927 5926 5926 5926 5926 5926 5925 5923 5923 5922 5922 5920 5919 5917 5915 5914 5913 5912 5911 5909 5908 5907 5906 5905 5906 5905
5913 5915 5918 5919 5920 5922 5922 5923 5924 5925 5925 5926 5926 5926 5927 5927 5927 5927 5927 5927 5927 5927 5926 5925 5924 5924 5922 5921 5920 5918 5917 5915 5914 5913 5912 5911 5909 5908 5907 5906 5905 5905 5904
5914 5916 5918 5919 5920 5922 5923 5924 5925 5926 5926 5927 5927 5928 5927 5928 5928 5928 5928 5928 5928 5927 5927 5925 5924 5923 5921 5920 5919 5917 5916 5914 5913 5912 5911 5910 5909 5907 5907 5906 5906 5905 5903
5914 5916 5918 5919 5920 5922 5923 5924 5925 5927 5928 5928 5928 5928 5928 5928 5928 5929 5929 5928 5928 5927 5926 5925 5923 5921 5920 5918 5917 5915 5914 5913 5911 5911 5910 5908 5907 5907 5905 5906 5904 5903 5902
5914 5916 5917 5919 5920 5921 5923 5924 5925 5927 5928 5928 5929 5928 5929 5928 5929 5928 5928 5927 5927 5926 5924 5923 5921 5919 5917 5915 5914 5913 5911 5911 5909 5908 5907 5907 5905 5904 5905 5904 5903 5902 5901
5914 5915 5917 5919 5919 5921 5923 5924 5925 5926 5927 5928 5928 5928 5929 5928 5928 5928 5927 5926 5925 5924 5922 5920 5918 5917 5915 5914 5912 5911 5909 5909 5908 5907 5906 5905 5903 5901 5901 5900 5900 5900 5900
5913 5914 5916 5917 5918 5920 5921 5923 5924 5925 5926 5926 5927 5927 5927 5927 5927 5926 5925 5924 5923 5921 5920 5918 5916 5914 5913 5910 5909 5907 5908 5908 5905 5905 5903 5901 5901 5900 5899 5897 5898 5898 5896
5912 5913 5914 5916 5917 5918 5920 5921 5922 5924 5924 5925 5925 5926 5926 5926 5924 5923 5922 5921 5919 5919 5917 5916 5914 5911 5910 5908 5906 5905 5904 5902 5902 5901 5900 5899 5898 5897 5897 5895 5895 5896 5894
5910 5912 5913 5914 5915 5916 5918 5919 5920 5921 5922 5922 5923 5924 5923 5922 5921 5920 5920 5919 5917 5916 5915 5913 5911 5909 5907 5905 5903 5901 5900 5899 5898 5898 5898 5896 5894 5893 5894 5892 5890 5890 5890
5908 5910 5911 5911 5913 5914 5915 5916 5917 5918 5919 5919 5919 5920 5920 5920 5919 5919 5918 5916 5915 5914 5913 5911 5909 5907 5904 5902 5900 5898 5895 5893 5893 5892 5892 5893 5893 5891 5886 5887 5886 5885 5885
5904 5907 5908 5909 5909 5910 5911 5913 5914 5914 5915 5915 5915 5916 5916 5917 5916 5916 5915 5914 5913 5910 5909 5907 5905 5903 5901 5898 5897 5893 5892 5890 5889 5887 5886 5886 5885 5885 5886 5882 5880 5879 5878